Zurück zum Katalog

EUTE 172B

AktivKommunikationGEO
NORAD 42741·PAYLOAD·🇪🇺 EU

Gestartet Jun 1, 2017 von Guiana Space Centre

Loading…

TLE

AktuellSource: Space-Track

Epoche: Sep 14, 2026, 15:40 UTC

1 42741U 17029B   26257.65299567 -.00000013  00000-0  00000-0 0  9993
2 42741   0.0222 145.2050 0000333 291.0541 324.4553  1.00272941 34643

Verfolge EUTE 172B in Echtzeit mit AllMySat

Download on the App Store